7 * 24
多渠道服务支持
STARLINK-32440 是 SpaceX Starlink 卫星互联网项目中的一颗低轨卫星,属于第三代星链卫星(v1.5 或 v2 版本)。该卫星由 SpaceX 制造并发射,旨在为全球用户提供高速、低延迟的宽带互联网服务。它运行在约 550 公里的轨道高度,配备先进通信设备和激光链路,以提升网络稳定性和传输效率。STARLINK-32440 的部署有助于扩展 Starlink 网络覆盖范围,特别是在偏远和网络基础设施薄弱的地区。
美国
(US)
| 数据来源 | 国际轨道数据 |
| 星历时间: | 2025-12-18T22:48:50+0800 1天前 查看轨道信息 |
| 半长轴: | 6853.346km |
| 偏心率: | 0.0001286 |
| 轨道倾角: | 53.161° |
| 近地点辐角 | 104.298° |
| 升交点赤经 | 117.943° |
| 平近点角 | 255.817° |
| 近地点: | 474.329km |
| 远地点: | 476.093km |
| 周期: | 94.105分钟 |
| 每日圈数: | 15.302022 |